Погода в Алхо

Россия / Республика Карелия     61°19′08″N   29°43′24″E
темп.,
°C
ветер,
м/с
пор.,
м/с
влажн.,
%
обл.,
%
осадки,
мм/ч
давл.,
гПа
погр.,
м
22 апреля, чт
чт2200:00+2зюз2399100 0.6 1002267
03:00+2ююз2499100 1.3 1002256
06:00+2ююз2698100 1.4 1002345
09:00+4ююз248998 1.4 1003343
12:00+9ююз246827 0.0 1003914
15:00+11ю345485 0.1 10041415
18:00+10юз476128 0.0 10051084
21:00+6ю118078 0.0 100511
23 апреля, пт
пт2300:00+5з1184100 0.4 100442
03:00+3сз2396100 5.9 1003398
06:00+3юз2598100 0.1 1003324
09:00+5ююв2484100 0.1 1004503
12:00+7ю476291 0.1 10041513
15:00+7ююз466180 0.5 10051294
18:00+6ю366215 0.3 10051286
21:00+4ю3781100 0.4 1006313
24 апреля, сб
сб2400:00+2ююв119335 0.0 100619
03:00+1ююв229520 0.1 100647
06:00+1ю249688 0.0 1006147
09:00+2юз129395 0.1 1007357
12:00+5ю117488 0.4 1007772
15:00+6ююв116881 1.2 1007759
18:00+4зюз128380 1.1 1007498
21:00+3зюз249452 1.8 1006167
25 апреля, вс
вс2500:00+1зсз229312 0.0 100642
03:000з119411 0.0 100519
06:000з239598 0.0 100492
09:00+4з228168 0.0 1004463
12:00+6зюз226887 0.1 10041020
15:00+5зсз2373100 0.1 1005640
18:00+5зсз3474100 0.1 1006598
21:00+3сз2489100 0.1 1006108
26 апреля, пн
пн2600:00+2сз3793100 0.0 1006313
03:00+1зсз3998100 0.7 1005362
06:00+2зсз3897100 2.4 1004338
09:00+4ссз3895100 2.8 1004584
12:00+5ссз3793100 0.8 1005621
15:00+4ссз3895100 1.1 1006632
18:00+5ссз4987100 0.1 1006587
21:00+4ссз3986100 0.1 1007407